DLH4AK EDDB-EDDM

Flight info

Callsign DLH4AK
Flight time 0h 57m
Altitude 28000
Route LUROS3Z LUROS Y211 BEBKU Z36 MAREM DCT VESUB T106 TUSTO T108 LANDU LANDU2B
Aircraft A320/M-SDE3FGHIRWY/LB1

Departure

Time 2026-05-07 04:08
Airport Berlin Brandenburg Airport (EDDB)

Arrival

Time 2026-05-07 05:05
Airport Munich Airport (EDDM)
Time Latitude Longitude Altitude Speed Heading
2026-05-07 03:19 52.36505 13.50519 155 ft 0 kts 69°
2026-05-07 03:52 52.36504 13.50516 155 ft 2 kts 69°
2026-05-07 03:52 52.36495 13.50477 155 ft 4 kts 69°
2026-05-07 03:53 52.36485 13.50436 155 ft 4 kts 69°
2026-05-07 03:53 52.36475 13.50394 155 ft 4 kts 69°
2026-05-07 03:53 52.36468 13.50361 155 ft 4 kts 78°
2026-05-07 03:53 52.36467 13.50320 155 ft 4 kts 115°
2026-05-07 03:54 52.36480 13.50297 155 ft 1 kts 159°
2026-05-07 03:54 52.36481 13.50296 155 ft 0 kts 159°
2026-05-07 03:57 52.36471 13.50302 155 ft 4 kts 159°
2026-05-07 03:58 52.36436 13.50324 155 ft 7 kts 159°
2026-05-07 03:58 52.36386 13.50355 155 ft 9 kts 159°
2026-05-07 03:58 52.36323 13.50395 155 ft 11 kts 159°
2026-05-07 03:58 52.36259 13.50436 155 ft 7 kts 159°
2026-05-07 03:59 52.36208 13.50469 155 ft 9 kts 159°
2026-05-07 03:59 52.36145 13.50508 155 ft 11 kts 158°
2026-05-07 03:59 52.36069 13.50556 154 ft 13 kts 160°
2026-05-07 03:59 52.35962 13.50623 154 ft 20 kts 159°
2026-05-07 04:00 52.35849 13.50632 154 ft 12 kts 189°
2026-05-07 04:00 52.35778 13.50618 154 ft 9 kts 244°
2026-05-07 04:00 52.35748 13.50517 154 ft 11 kts 248°
2026-05-07 04:00 52.35713 13.50372 154 ft 15 kts 248°
2026-05-07 04:01 52.35682 13.50238 154 ft 15 kts 248°
2026-05-07 04:01 52.35651 13.50109 154 ft 6 kts 249°
2026-05-07 04:01 52.35633 13.50035 154 ft 12 kts 249°
2026-05-07 04:01 52.35592 13.49859 154 ft 21 kts 249°
2026-05-07 04:02 52.35533 13.49614 154 ft 25 kts 249°
2026-05-07 04:02 52.35469 13.49351 157 ft 26 kts 247°
2026-05-07 04:02 52.35407 13.49082 154 ft 25 kts 249°
2026-05-07 04:02 52.35344 13.48815 154 ft 26 kts 249°
2026-05-07 04:03 52.35274 13.48524 154 ft 29 kts 249°
2026-05-07 04:03 52.35202 13.48221 154 ft 26 kts 249°
2026-05-07 04:03 52.35134 13.47930 154 ft 29 kts 249°
2026-05-07 04:03 52.35059 13.47618 154 ft 28 kts 249°
2026-05-07 04:04 52.34988 13.47319 155 ft 29 kts 249°
2026-05-07 04:04 52.34912 13.46998 154 ft 31 kts 249°
2026-05-07 04:04 52.34838 13.46692 154 ft 21 kts 246°
2026-05-07 04:04 52.34769 13.46569 154 ft 12 kts 162°
2026-05-07 04:05 52.34699 13.46620 154 ft 9 kts 160°
2026-05-07 04:05 52.34642 13.46655 154 ft 8 kts 154°
2026-05-07 04:05 52.34614 13.46726 154 ft 8 kts 114°
2026-05-07 04:05 52.34589 13.46818 154 ft 10 kts 114°
2026-05-07 04:06 52.34566 13.46933 154 ft 10 kts 77°
2026-05-07 04:06 52.34581 13.47005 154 ft 0 kts 67°
2026-05-07 04:07 52.34606 13.47104 154 ft 39 kts 67°
2026-05-07 04:07 52.34793 13.47897 154 ft 108 kts 69°
2026-05-07 04:08 52.35132 13.49326 209 ft 155 kts 68°
2026-05-07 04:08 52.35526 13.51009 790 ft 162 kts 69°
2026-05-07 04:08 52.35895 13.52750 1608 ft 162 kts 75°
2026-05-07 04:08 52.36070 13.54569 2421 ft 162 kts 83°
2026-05-07 04:09 52.36184 13.56389 3126 ft 161 kts 82°
2026-05-07 04:09 52.36301 13.58243 3666 ft 171 kts 81°
2026-05-07 04:09 52.36433 13.60303 3991 ft 193 kts 82°
2026-05-07 04:09 52.36582 13.62617 4290 ft 216 kts 82°
2026-05-07 04:10 52.36745 13.65182 4828 ft 232 kts 81°
2026-05-07 04:10 52.36905 13.67807 5642 ft 237 kts 83°
2026-05-07 04:10 52.37068 13.70521 6478 ft 242 kts 83°
2026-05-07 04:10 52.37234 13.73297 7275 ft 248 kts 83°
2026-05-07 04:11 52.37363 13.76126 8108 ft 252 kts 92°
2026-05-07 04:11 52.37065 13.79016 8747 ft 268 kts 107°
2026-05-07 04:11 52.36516 13.82061 9268 ft 287 kts 108°
2026-05-07 04:11 52.35935 13.85241 10026 ft 295 kts 108°
2026-05-07 04:12 52.35343 13.88476 10859 ft 299 kts 108°
2026-05-07 04:12 52.34745 13.91752 11731 ft 301 kts 108°
2026-05-07 04:12 52.34145 13.95057 12568 ft 305 kts 108°
2026-05-07 04:12 52.33538 13.98409 13416 ft 309 kts 108°
2026-05-07 04:13 52.32918 14.01797 14175 ft 313 kts 111°
2026-05-07 04:13 52.31954 14.04925 14876 ft 313 kts 128°
2026-05-07 04:13 52.30449 14.07479 15605 ft 314 kts 145°
2026-05-07 04:13 52.28499 14.09252 15851 ft 331 kts 163°
2026-05-07 04:14 52.26193 14.09989 16132 ft 345 kts 175°
2026-05-07 04:14 52.23788 14.10434 16730 ft 351 kts 175°
2026-05-07 04:14 52.21349 14.10916 17437 ft 355 kts 174°
2026-05-07 04:14 52.18893 14.11424 18151 ft 358 kts 174°
2026-05-07 04:15 52.16413 14.11950 18762 ft 361 kts 174°
2026-05-07 04:15 52.13914 14.12483 19374 ft 363 kts 174°
2026-05-07 04:15 52.11404 14.13013 20003 ft 365 kts 174°
2026-05-07 04:15 52.08875 14.13544 20619 ft 368 kts 174°
2026-05-07 04:16 52.06328 14.14076 21220 ft 370 kts 174°
2026-05-07 04:16 52.03765 14.14603 21811 ft 372 kts 174°
2026-05-07 04:16 52.01185 14.15131 22402 ft 375 kts 174°
2026-05-07 04:16 51.98621 14.15653 22977 ft 378 kts 175°
2026-05-07 04:17 51.96005 14.16185 23539 ft 380 kts 175°
2026-05-07 04:17 51.93372 14.16712 24032 ft 382 kts 176°
2026-05-07 04:17 51.90718 14.16761 24514 ft 382 kts 186°
2026-05-07 04:17 51.88101 14.16009 24994 ft 383 kts 196°
2026-05-07 04:18 51.85602 14.14501 25476 ft 385 kts 203°
2026-05-07 04:18 51.83138 14.12779 25969 ft 386 kts 203°
2026-05-07 04:18 51.80668 14.11060 26437 ft 388 kts 202°
2026-05-07 04:18 51.78184 14.09338 26910 ft 389 kts 202°
2026-05-07 04:19 51.75688 14.07614 27369 ft 391 kts 202°
2026-05-07 04:19 51.73176 14.05884 27788 ft 393 kts 202°
2026-05-07 04:19 51.70669 14.04158 27876 ft 387 kts 202°
2026-05-07 04:19 51.68250 14.02494 27887 ft 371 kts 202°
2026-05-07 04:20 51.65927 14.00900 27891 ft 366 kts 202°
2026-05-07 04:20 51.63575 13.99289 27891 ft 372 kts 202°
2026-05-07 04:20 51.61159 13.97631 27887 ft 380 kts 202°
2026-05-07 04:21 51.56159 13.94204 28118 ft 400 kts 202°
2026-05-07 04:21 51.53580 13.92439 28464 ft 404 kts 202°
2026-05-07 04:21 51.50997 13.90677 29006 ft 403 kts 202°
2026-05-07 04:21 51.48422 13.88925 29623 ft 400 kts 202°
2026-05-07 04:22 51.45843 13.87304 30189 ft 397 kts 197°
2026-05-07 04:22 51.43159 13.86315 30716 ft 394 kts 191°
2026-05-07 04:22 51.40470 13.85543 31240 ft 391 kts 191°
2026-05-07 04:22 51.37834 13.84787 31755 ft 389 kts 191°
2026-05-07 04:23 51.35177 13.84024 32256 ft 387 kts 191°
2026-05-07 04:23 51.32537 13.83264 32775 ft 384 kts 191°
2026-05-07 04:23 51.29915 13.82503 33287 ft 382 kts 192°
2026-05-07 04:23 51.27305 13.81741 33749 ft 381 kts 192°
2026-05-07 04:24 51.24706 13.80987 33852 ft 379 kts 192°
2026-05-07 04:24 51.22111 13.80242 33863 ft 378 kts 192°
2026-05-07 04:24 51.16932 13.78769 33864 ft 378 kts 192°
2026-05-07 04:25 51.11755 13.77296 33865 ft 378 kts 192°
2026-05-07 04:25 51.06616 13.75817 33865 ft 378 kts 192°
2026-05-07 04:26 51.01440 13.74344 33867 ft 378 kts 192°
2026-05-07 04:26 50.96267 13.72875 33859 ft 377 kts 191°
2026-05-07 04:27 50.91100 13.71415 33857 ft 377 kts 191°
2026-05-07 04:27 50.86053 13.69435 33853 ft 376 kts 197°
2026-05-07 04:28 50.81026 13.67151 33847 ft 376 kts 197°
2026-05-07 04:28 50.75998 13.64882 33847 ft 376 kts 197°
2026-05-07 04:29 50.70977 13.62620 33848 ft 375 kts 197°
2026-05-07 04:29 50.66001 13.60195 33848 ft 374 kts 198°
2026-05-07 04:30 50.61048 13.57666 33848 ft 374 kts 198°
2026-05-07 04:30 50.56099 13.55162 33848 ft 373 kts 198°
2026-05-07 04:31 50.51145 13.52687 33850 ft 373 kts 198°
2026-05-07 04:31 50.46229 13.50244 33848 ft 373 kts 198°
2026-05-07 04:32 50.41278 13.47796 33847 ft 373 kts 198°
2026-05-07 04:32 50.36324 13.45361 33849 ft 373 kts 198°
2026-05-07 04:33 50.31385 13.42934 33843 ft 372 kts 198°
2026-05-07 04:33 50.26440 13.40507 33845 ft 372 kts 198°
2026-05-07 04:34 50.21493 13.38086 33851 ft 373 kts 198°
2026-05-07 04:34 50.16580 13.35680 33854 ft 373 kts 198°
2026-05-07 04:35 50.11630 13.33264 33851 ft 373 kts 198°
2026-05-07 04:35 50.06682 13.30843 33864 ft 373 kts 198°
2026-05-07 04:36 50.01740 13.28435 33868 ft 372 kts 198°
2026-05-07 04:36 49.96796 13.26047 33868 ft 372 kts 198°
2026-05-07 04:37 49.91856 13.23652 33878 ft 372 kts 198°
2026-05-07 04:37 49.86919 13.21261 33870 ft 372 kts 198°
2026-05-07 04:38 49.82011 13.18888 33874 ft 372 kts 198°
2026-05-07 04:38 49.77076 13.16509 33875 ft 371 kts 198°
2026-05-07 04:39 49.72145 13.14142 33616 ft 368 kts 198°
2026-05-07 04:39 49.69711 13.12974 33340 ft 365 kts 198°
2026-05-07 04:39 49.67290 13.11816 33084 ft 363 kts 198°
2026-05-07 04:40 49.64883 13.10663 32812 ft 361 kts 198°
2026-05-07 04:40 49.62510 13.09526 32486 ft 354 kts 198°
2026-05-07 04:40 49.60171 13.08409 32060 ft 350 kts 198°
2026-05-07 04:40 49.57863 13.07311 31643 ft 345 kts 198°
2026-05-07 04:41 49.55584 13.06228 31235 ft 340 kts 198°
2026-05-07 04:41 49.53332 13.05155 30828 ft 336 kts 198°
2026-05-07 04:41 49.51141 13.04115 30441 ft 332 kts 198°
2026-05-07 04:41 49.48950 13.03077 30062 ft 328 kts 198°
2026-05-07 04:42 49.46785 13.02050 29641 ft 323 kts 198°
2026-05-07 04:42 49.44656 13.01043 29263 ft 317 kts 198°
2026-05-07 04:42 49.42568 13.00052 28906 ft 311 kts 199°
2026-05-07 04:42 49.40588 12.98785 28528 ft 307 kts 206°
2026-05-07 04:43 49.38664 12.97371 28147 ft 306 kts 206°
2026-05-07 04:43 49.36749 12.95966 27768 ft 305 kts 206°
2026-05-07 04:43 49.34837 12.94570 27379 ft 304 kts 206°
2026-05-07 04:43 49.32930 12.93181 27014 ft 303 kts 206°
2026-05-07 04:44 49.31026 12.91796 26631 ft 302 kts 206°
2026-05-07 04:44 49.29770 12.90882 26373 ft 302 kts 206°
2026-05-07 04:44 49.27258 12.89055 25862 ft 301 kts 206°
2026-05-07 04:44 49.25370 12.87682 25463 ft 300 kts 206°
2026-05-07 04:45 49.23483 12.86311 25065 ft 299 kts 206°
2026-05-07 04:45 49.21603 12.84946 24664 ft 299 kts 206°
2026-05-07 04:45 49.20337 12.84027 24379 ft 298 kts 206°
2026-05-07 04:45 49.18491 12.82691 23967 ft 298 kts 206°
2026-05-07 04:46 49.16618 12.81337 23566 ft 297 kts 206°
2026-05-07 04:46 49.14752 12.79986 23098 ft 297 kts 206°
2026-05-07 04:46 49.12888 12.78638 22677 ft 296 kts 206°
2026-05-07 04:46 49.11027 12.77296 22271 ft 295 kts 206°
2026-05-07 04:47 49.09174 12.75961 21866 ft 294 kts 206°
2026-05-07 04:47 49.06727 12.74199 21353 ft 293 kts 206°
2026-05-07 04:47 49.05481 12.73301 21088 ft 293 kts 206°
2026-05-07 04:47 49.03639 12.71972 20693 ft 293 kts 206°
2026-05-07 04:48 49.01798 12.70646 20305 ft 293 kts 206°
2026-05-07 04:48 48.99981 12.69341 19917 ft 293 kts 206°
2026-05-07 04:48 48.98141 12.68023 19541 ft 292 kts 206°
2026-05-07 04:48 48.96296 12.66704 19156 ft 293 kts 206°
2026-05-07 04:49 48.94449 12.65377 18775 ft 294 kts 207°
2026-05-07 04:49 48.92599 12.64048 18382 ft 295 kts 207°
2026-05-07 04:49 48.90742 12.62718 17977 ft 296 kts 207°
2026-05-07 04:49 48.88881 12.61388 17586 ft 295 kts 207°
2026-05-07 04:50 48.87024 12.60065 17210 ft 294 kts 207°
2026-05-07 04:50 48.85171 12.58749 16834 ft 294 kts 207°
2026-05-07 04:50 48.83322 12.57435 16451 ft 293 kts 207°
2026-05-07 04:50 48.81501 12.56140 16105 ft 293 kts 207°
2026-05-07 04:51 48.79650 12.54827 15739 ft 293 kts 207°
2026-05-07 04:51 48.77804 12.53519 15375 ft 293 kts 207°
2026-05-07 04:51 48.75936 12.52285 15009 ft 294 kts 202°
2026-05-07 04:51 48.74003 12.51246 14638 ft 295 kts 202°
2026-05-07 04:52 48.72068 12.50209 14255 ft 296 kts 202°
2026-05-07 04:52 48.70128 12.49169 13880 ft 296 kts 202°
2026-05-07 04:52 48.68187 12.48124 13470 ft 297 kts 202°
2026-05-07 04:52 48.66244 12.47077 13080 ft 296 kts 202°
2026-05-07 04:53 48.64314 12.46027 12708 ft 294 kts 205°
2026-05-07 04:53 48.62602 12.44493 12308 ft 289 kts 222°
2026-05-07 04:53 48.61306 12.42224 11943 ft 285 kts 239°
2026-05-07 04:53 48.60546 12.39471 11556 ft 284 kts 256°
2026-05-07 04:54 48.60282 12.36515 11166 ft 284 kts 262°
2026-05-07 04:54 48.60056 12.33558 10787 ft 282 kts 258°
2026-05-07 04:54 48.59300 12.30880 10415 ft 278 kts 232°
2026-05-07 04:54 48.57842 12.29077 10070 ft 269 kts 206°
2026-05-07 04:55 48.56036 12.28437 9462 ft 268 kts 187°
2026-05-07 04:55 48.54167 12.28448 8736 ft 271 kts 177°
2026-05-07 04:55 48.52321 12.29057 7996 ft 273 kts 169°
2026-05-07 04:55 48.50473 12.29807 7469 ft 276 kts 169°
2026-05-07 04:56 48.48624 12.30556 7055 ft 275 kts 169°
2026-05-07 04:56 48.46803 12.31300 6630 ft 275 kts 169°
2026-05-07 04:56 48.44960 12.32060 6195 ft 275 kts 169°
2026-05-07 04:56 48.43109 12.32681 5751 ft 268 kts 182°
2026-05-07 04:57 48.41322 12.32282 5346 ft 253 kts 207°
2026-05-07 04:57 48.39888 12.31068 5213 ft 223 kts 224°
2026-05-07 04:57 48.38874 12.29478 5106 ft 203 kts 239°
2026-05-07 04:57 48.38228 12.27668 5019 ft 192 kts 252°
2026-05-07 04:58 48.37937 12.25791 5011 ft 179 kts 266°
2026-05-07 04:58 48.37963 12.23950 5015 ft 175 kts 278°
2026-05-07 04:58 48.38286 12.22186 5015 ft 176 kts 290°
2026-05-07 04:58 48.38758 12.20482 5016 ft 175 kts 286°
2026-05-07 04:59 48.39037 12.18733 5022 ft 174 kts 277°
2026-05-07 04:59 48.39113 12.16915 5024 ft 175 kts 268°
2026-05-07 04:59 48.39028 12.15090 5026 ft 175 kts 266°
2026-05-07 04:59 48.38961 12.13255 5027 ft 175 kts 266°
2026-05-07 05:00 48.38866 12.11495 5041 ft 161 kts 265°
2026-05-07 05:00 48.38759 12.09900 5017 ft 149 kts 265°
2026-05-07 05:00 48.38650 12.08369 4906 ft 146 kts 265°
2026-05-07 05:00 48.38540 12.06851 4729 ft 146 kts 265°
2026-05-07 05:01 48.38429 12.05339 4557 ft 145 kts 265°
2026-05-07 05:01 48.38318 12.03837 4368 ft 144 kts 264°
2026-05-07 05:01 48.38207 12.02337 4170 ft 144 kts 264°
2026-05-07 05:01 48.38098 12.00863 3978 ft 143 kts 264°
2026-05-07 05:02 48.37987 11.99375 3786 ft 143 kts 264°
2026-05-07 05:02 48.37877 11.97901 3595 ft 142 kts 264°
2026-05-07 05:02 48.37767 11.96433 3411 ft 140 kts 264°
2026-05-07 05:02 48.37658 11.94974 3224 ft 140 kts 264°
2026-05-07 05:03 48.37548 11.93516 3030 ft 141 kts 264°
2026-05-07 05:03 48.37439 11.92055 2836 ft 140 kts 263°
2026-05-07 05:03 48.37329 11.90600 2638 ft 140 kts 263°
2026-05-07 05:03 48.37218 11.89135 2447 ft 141 kts 263°
2026-05-07 05:04 48.37108 11.87670 2238 ft 141 kts 262°
2026-05-07 05:04 48.36998 11.86223 2057 ft 139 kts 263°
2026-05-07 05:04 48.36889 11.84776 1855 ft 139 kts 262°
2026-05-07 05:04 48.36785 11.83361 1688 ft 137 kts 263°
2026-05-07 05:05 48.36676 11.81935 1515 ft 138 kts 262°
2026-05-07 05:05 48.36575 11.80635 1485 ft 104 kts 263°
2026-05-07 05:05 48.36502 11.79843 1473 ft 39 kts 251°
2026-05-07 05:05 48.36399 11.79598 1480 ft 21 kts 233°
2026-05-07 05:06 48.36329 11.79458 1476 ft 9 kts 233°
2026-05-07 05:06 48.36307 11.79414 1478 ft 3 kts 233°
2026-05-07 05:06 48.36297 11.79393 1480 ft 2 kts 234°
2026-05-07 05:06 48.36270 11.79337 1478 ft 9 kts 233°
2026-05-07 05:07 48.36207 11.79296 1485 ft 11 kts 178°
2026-05-07 05:07 48.36126 11.79311 1474 ft 12 kts 173°
2026-05-07 05:07 48.36042 11.79324 1483 ft 12 kts 173°
2026-05-07 05:07 48.35956 11.79339 1481 ft 12 kts 172°
2026-05-07 05:08 48.35904 11.79412 1479 ft 11 kts 94°
2026-05-07 05:08 48.35884 11.79510 1475 ft 10 kts 153°
2026-05-07 05:08 48.35808 11.79528 1485 ft 13 kts 173°
2026-05-07 05:08 48.35704 11.79547 1484 ft 16 kts 174°
2026-05-07 05:09 48.35599 11.79565 1485 ft 10 kts 174°
2026-05-07 05:09 48.35580 11.79569 1485 ft 3 kts 166°
2026-05-07 05:09 48.35574 11.79608 1478 ft 7 kts 92°
2026-05-07 05:09 48.35580 11.79692 1485 ft 8 kts 83°
2026-05-07 05:10 48.35582 11.79716 1485 ft 0 kts 83°